Guymon, OK

4:06 AM CDT on April 24, 2018 (GMT -0500)
Guymon Municipal

Weather History for KGUY - June, 2011

Change the Weather History Date:

Tuesday, June 7, 2011

  Actual Average Record
Temperature  
Mean Temperature 87 °F 72 °F  
Max Temperature 103 °F 85 °F 104 °F (2008)
Min Temperature 70 °F 58 °F 50 °F (2007)
Degree Days  
Heating Degree Days 0 0  
Month to date heating degree days 0 6  
Since 1 June heating degree days 0 6  
Since 1 July heating degree days 4178 4455  
Cooling Degree Days 22 7  
Month to date cooling degree days 126 45  
Year to date cooling degree days 289 153  
Since 1 June cooling degree days 126 45  
Growing Degree Days 36 (Base 50)    
Moisture  
Dew Point 30 °F    
Average Humidity 31    
Maximum Humidity 57    
Minimum Humidity 4    
Precipitation  
Precipitation 0.00 in 0.12 in 0.34 in (2015)
Month to date precipitation 0.04 0.84  
Year to date precipitation 1.51 7.09  
Snow  
Snow 0.00 in - - ()
Month to date snowfall 0.0  
Since 1 June snowfall 0.0  
Since 1 July snowfall 9.2  
Snow Depth 0.00 in    
Sea Level Pressure  
Sea Level Pressure 29.57 in    
Wind  
Wind Speed 17 mph (SSW)    
Max Wind Speed 32 mph    
Max Gust Speed 38 mph    
Visibility 10 miles    
Events      
T = Trace of Precipitation, MM = Missing Value Source: NWS Daily Summary

Daily Weather History Graph

Daily Weather History Graph

Search for Another Location

Airport or City:

Astronomy

Jun. 07, 2011 Rise Set
Actual Time 6:27 AM CDT 9:02 PM CDT
Civil Twilight 5:56 AM CDT 9:33 PM CDT
Nautical Twilight 5:19 AM CDT 10:10 PM CDT
Astronomical Twilight 4:37 AM CDT 10:52 PM CDT
Moon 12:18 PM CDT (6/7) 12:45 AM CDT (6/7)
Length of Visible Light 15h 36m
Length of Day
14h 35m
Waxing Crescent, 35% of the Moon is Illuminated
Jun 7
Waxing Crescent
Jun 8
First Quarter
Jun 15
Full
Jun 23
Last Quarter
Jul 1
New

Hourly Weather History & Observations

Time (CDT) Temp. Dew Point Humidity Pressure Visibility Wind Dir Wind Speed Gust Speed Precip Events Conditions
12:53 AM 75.9 °F 37.9 °F 25% 29.65 in 10.0 mi South 15.0 mph - N/A   Clear
1:53 AM 75.9 °F 35.1 °F 23% 29.62 in 10.0 mi South 17.3 mph 27.6 mph N/A   Clear
2:53 AM 75.0 °F 35.1 °F 23% 29.62 in 10.0 mi South 16.1 mph - N/A   Clear
3:53 AM 73.0 °F 34.0 °F 24% 29.63 in 10.0 mi South 13.8 mph - N/A   Clear
4:53 AM 71.1 °F 36.0 °F 28% 29.62 in 10.0 mi South 13.8 mph - N/A   Clear
5:53 AM 70.0 °F 36.0 °F 29% 29.62 in 10.0 mi South 15.0 mph - N/A   Clear
6:53 AM 73.9 °F 37.9 °F 27% 29.63 in 10.0 mi South 16.1 mph - N/A   Partly Cloudy
7:53 AM 73.9 °F 39.0 °F 28% 29.64 in 10.0 mi South 15.0 mph - N/A   Partly Cloudy
8:53 AM 77.0 °F 41.0 °F 28% 29.64 in 10.0 mi SSW 19.6 mph - N/A   Scattered Clouds
9:53 AM 81.0 °F 41.0 °F 24% 29.64 in 10.0 mi SSW 23.0 mph 29.9 mph N/A   Overcast
10:53 AM 86.0 °F 39.9 °F 20% 29.63 in 10.0 mi SW 20.7 mph - N/A   Scattered Clouds
11:53 AM 90.0 °F 37.0 °F 15% 29.62 in 9.0 mi SW 16.1 mph 25.3 mph N/A   Clear
12:53 PM 71.1 °F 55.9 °F 59% 29.43 in 10.0 mi North - - N/A   Scattered Clouds
1:53 PM 97.0 °F 30.0 °F 9% 29.59 in 6.0 mi South 18.4 mph 28.8 mph N/A   Haze
2:53 PM 100.9 °F 21.9 °F 6% 29.55 in 10.0 mi SSW 23.0 mph 35.7 mph N/A   Clear
3:53 PM 102.0 °F 24.1 °F 6% 29.52 in 10.0 mi SSW 24.2 mph 35.7 mph N/A   Clear
4:53 PM 102.0 °F 15.1 °F 4% 29.51 in 10.0 mi SW 19.6 mph 29.9 mph N/A   Clear
5:53 PM 102.9 °F 12.0 °F 4% 29.49 in 10.0 mi SSW 25.3 mph 34.5 mph N/A   Clear
6:53 PM 100.9 °F 14.0 °F 4% 29.48 in 10.0 mi SSW 23.0 mph 27.6 mph N/A   Clear
7:53 PM 99.0 °F 12.9 °F 4% 29.48 in 10.0 mi SW 15.0 mph - N/A   Clear
8:53 PM 87.1 °F 19.9 °F 8% 29.52 in 10.0 mi SSW 8.1 mph - N/A   Clear
9:53 PM 75.9 °F 19.0 °F 12% 29.54 in 10.0 mi SW 9.2 mph - N/A   Clear
10:53 PM 75.9 °F 21.0 °F 13% 29.57 in 10.0 mi SSE 10.4 mph - N/A   Clear
11:53 PM 81.0 °F 33.1 °F 18% 29.56 in 10.0 mi South 18.4 mph - N/A   Clear